Tracking 27423 objects as of 8-Jun-2023
HD Live streaming from Space Station
objects crossing your sky now

STARLINK-1601

Track STARLINK-1601 now!
10-day predictions
STARLINK-1601 is classified as:


NORAD ID: 46120
Int'l Code: 2020-057D
Perigee: 553.5 km
Apogee: 555.2 km
Inclination: 53.1 °
Period: 95.6 minutes
Semi major axis: 6925 km
RCS: Unknown
Launch date: August 18, 2020
Source: United States (US)
Launch site: AIR FORCE EASTERN TEST RANGE (AFETR)
Your satellite tracking list
Your tracking list is empty




NASA's NSSDC Master Catalog

Two Line Element Set (TLE):
1 46120U 20057D   23159.37882509  .00000084  00000-0  24514-4 0  9991
2 46120  53.0539 149.6281 0001199  86.3226 273.7900 15.06406820155829
Source of the keplerian elements: AFSPC